Hourly Data Report for May 10, 2020

KUGAARUK CLIMATE
NUNAVUT
Current Station Operator: ECCC - MSC

68°32'15.060" N
89°47'47.020" W
15.80 m
2303094
71407
NBB

Download Data

Hourly Data (May 2020)
Hourly Data Report for May 10, 2020
TIME
LST
Temp Definition
°C
Dew Point Definition
°C
Rel Hum Definition
%
Precip. Amount Definition
mm

Wind Dir Definition
10's deg

Wind Spd Definition
km/h
Visibility Definition
km
Stn Press Definition
kPa
Hmdx Definition


Wind Chill Definition


Weather Definition


00:00 -18.4 -21.0 80 0.0 24 21   104.17   -29 LegendNANA
01:00 -17.9 -20.6 79 0.0 24 25   104.10   -29 LegendNANA
02:00 -18.3 -21.2 78 0.0 25 32   104.02   -31 LegendNANA
03:00 -18.6 -21.5 78 0.0 24 26   103.93   -30 LegendNANA
04:00 -17.5 -20.8 75 0.0 27 27   103.87   -29 LegendNANA
05:00 -17.4 -20.8 75 0.0 25 33   103.82   -30 LegendNANA
06:00 -16.9 -20.5 73 0.0 26 30   103.72   -29 LegendNANA
07:00 -15.9 -19.9 72 0.0 26 25   103.68   -26 LegendNANA
08:00 -14.7 -19.0 69 0.0 27 26   103.57   -25 LegendNANA
09:00 -13.5 -18.4 67 0.0 28 28   103.50   -24 LegendNANA
10:00 -12.3 -17.3 66 0.0 28 27   103.43   -22 LegendNANA
11:00 -11.3 -16.8 64 0.0 28 29   103.35   -21 LegendNANA
12:00 -10.5 -15.8 65 0.0 29 22   103.29   -19 LegendNANA
13:00 -10.9 -16.1 66 0.0 27 23   103.24   -20 LegendNANA
14:00 -10.9 -15.7 68 0.0 26 20   103.20   -19 LegendNANA
15:00 -11.1 -15.9 68 0.0 27 22   103.11   -20 LegendNANA
16:00 -11.8 -15.8 72 0.0 24 24   103.03   -21 LegendNANA
17:00 -12.0 -15.7 74 0.0 26 31   102.96   -22 LegendNANA
18:00 -12.4 -16.2 73 0.0 26 25   102.91   -22 LegendNANA
19:00 -13.0 -16.5 75 0.0 26 23   102.85   -22 LegendNANA
20:00 -14.0 -16.9 79 0.0 24 23   102.79   -24 LegendNANA
21:00 -14.7 -17.5 80 0.0 23 21   102.71   -24 LegendNANA
22:00 -15.6 -18.2 81 0.0 25 12   102.67   -23 LegendNANA
23:00 -16.9 -19.6 80 0.0 24 15   102.62   -25 LegendNANA

Notes on Data Quality.

Legend

  • E = Estimated
  • M = Missing
  • NA = Not Available*
  • [empty] = Indicates an unobserved value
Date modified: